| time (UTC) | temp F | wind direction | speed MPH | gust MPH | rain 1hr in | rain 24hr in | rain mn in | humidity % | barometer mb |
| 20260509171403 | 74 | 247 | 2.0 | 3.0 | 0.00 | 0.00 | 0.00 | 49 | 1030.3 |
| 20260509170903 | 74 | 272 | 3.0 | 7.0 | 0.00 | 0.00 | 0.00 | 49 | 1030.3 |
| 20260509165903 | 73 | 272 | 0.0 | 3.0 | 0.00 | 0.00 | 0.00 | 55 | 1030.3 |
| 20260509165403 | 72 | 295 | 0.0 | 3.0 | 0.00 | 0.00 | 0.00 | 55 | 1030.3 |
| 20260509163903 | 71 | 257 | 2.0 | 3.0 | 0.00 | 0.00 | 0.00 | 56 | 1030.5 |
| 20260509163404 | 70 | 271 | 3.0 | 6.0 | 0.00 | 0.00 | 0.00 | 56 | 1030.5 |
| 20260509162403 | 70 | 263 | 3.0 | 6.0 | 0.00 | 0.00 | 0.00 | 58 | 1030.6 |
| 20260509161404 | 70 | 285 | 3.0 | 6.0 | 0.00 | 0.00 | 0.00 | 59 | 1030.6 |
| 20260509160904 | 70 | 216 | 3.0 | 6.0 | 0.00 | 0.00 | 0.00 | 60 | 1030.6 |
| 20260509160403 | 69 | 132 | 0.0 | 3.0 | 0.00 | 0.00 | 0.00 | 61 | 1030.5 |
| 20260509155904 | 68 | 338 | 0.0 | 0.0 | 0.00 | 0.00 | 0.00 | 61 | 1030.6 |
| 20260509155403 | 68 | 338 | 0.0 | 0.0 | 0.00 | 0.00 | 0.00 | 61 | 1030.7 |
| 20260509154903 | 68 | 338 | 0.0 | 1.0 | 0.00 | 0.00 | 0.00 | 62 | 1030.7 |
| 20260509154403 | 67 | 250 | 0.0 | 0.0 | 0.00 | 0.00 | 0.00 | 63 | 1030.7 |
| 20260509153904 | 66 | 250 | 0.0 | 0.0 | 0.00 | 0.00 | 0.00 | 65 | 1030.8 |
| 20260509153403 | 65 | 250 | 0.0 | 0.0 | 0.00 | 0.00 | 0.00 | 66 | 1030.8 |
| 20260509152903 | 65 | 250 | 0.0 | 0.0 | 0.00 | 0.00 | 0.00 | 66 | 1030.8 |
| 20260509152403 | 64 | 265 | 0.0 | 0.0 | 0.00 | 0.00 | 0.00 | 67 | 1030.9 |
| 20260509151403 | 64 | 265 | 0.0 | 0.0 | 0.00 | 0.00 | 0.00 | 68 | 1030.9 |
| 20260509150903 | 64 | 288 | 0.0 | 0.0 | 0.00 | 0.00 | 0.00 | 70 | 1031.0 |
| 20260509150403 | 63 | 288 | 0.0 | 0.0 | 0.00 | 0.00 | 0.00 | 71 | 1031.0 |
| 20260509145403 | 62 | 140 | 0.0 | 0.0 | 0.00 | 0.00 | 0.00 | 74 | 1030.9 |
| 20260509144904 | 62 | 140 | 0.0 | 0.0 | 0.00 | 0.00 | 0.00 | 74 | 1030.9 |
| 20260509143903 | 61 | 140 | 0.0 | 0.0 | 0.00 | 0.00 | 0.00 | 76 | 1030.9 |
| 20260509143403 | 61 | 140 | 0.0 | 0.0 | 0.00 | 0.00 | 0.00 | 77 | 1030.9 |
| 20260509142903 | 60 | 126 | 0.0 | 0.0 | 0.00 | 0.00 | 0.00 | 79 | 1031.0 |
| 20260509142403 | 59 | 126 | 0.0 | 0.0 | 0.00 | 0.00 | 0.00 | 79 | 1031.0 |
| 20260509141903 | 59 | 126 | 0.0 | 0.0 | 0.00 | 0.00 | 0.00 | 80 | 1030.9 |
| 20260509141403 | 59 | 126 | 0.0 | 0.0 | 0.00 | 0.00 | 0.00 | 80 | 1030.9 |
| 20260509140904 | 58 | 126 | 0.0 | 0.0 | 0.00 | 0.00 | 0.00 | 81 | 1030.8 |
| 20260509140403 | 58 | 126 | 0.0 | 0.0 | 0.00 | 0.00 | 0.00 | 82 | 1030.7 |
| 20260509135403 | 57 | 126 | 0.0 | 0.0 | 0.00 | 0.00 | 0.00 | 83 | 1030.8 |
| 20260509134903 | 57 | 126 | 0.0 | 0.0 | 0.00 | 0.00 | 0.00 | 83 | 1030.8 |
| 20260509134403 | 56 | 126 | 0.0 | 0.0 | 0.00 | 0.00 | 0.00 | 83 | 1030.7 |
| 20260509133903 | 56 | 126 | 0.0 | 0.0 | 0.00 | 0.00 | 0.00 | 83 | 1030.6 |
| 20260509133403 | 56 | 126 | 0.0 | 0.0 | 0.00 | 0.00 | 0.00 | 82 | 1030.6 |
| 20260509132903 | 56 | 126 | 0.0 | 0.0 | 0.00 | 0.00 | 0.00 | 82 | 1030.5 |
| 20260509132403 | 56 | 126 | 0.0 | 0.0 | 0.00 | 0.00 | 0.00 | 82 | 1030.5 |
| 20260509131903 | 56 | 126 | 0.0 | 0.0 | 0.00 | 0.00 | 0.00 | 82 | 1030.6 |
| 20260509130903 | 56 | 126 | 0.0 | 0.0 | 0.00 | 0.00 | 0.00 | 82 | 1030.6 |
| 20260509130403 | 56 | 126 | 0.0 | 0.0 | 0.00 | 0.00 | 0.00 | 82 | 1030.5 |
| 20260509125903 | 56 | 126 | 0.0 | 0.0 | 0.00 | 0.00 | 0.00 | 82 | 1030.4 |
| 20260509125404 | 56 | 126 | 0.0 | 0.0 | 0.00 | 0.00 | 0.00 | 82 | 1030.4 |
| 20260509124904 | 57 | 126 | 0.0 | 0.0 | 0.00 | 0.00 | 0.00 | 82 | 1030.4 |
| 20260509124404 | 57 | 126 | 0.0 | 0.0 | 0.00 | 0.00 | 0.00 | 83 | 1030.4 |
| 20260509123903 | 57 | 134 | 0.0 | 0.0 | 0.00 | 0.00 | 0.00 | 82 | 1030.3 |
| 20260509122903 | 57 | 148 | 0.0 | 0.0 | 0.00 | 0.00 | 0.00 | 82 | 1030.3 |
| 20260509122404 | 57 | 148 | 0.0 | 0.0 | 0.00 | 0.00 | 0.00 | 82 | 1030.3 |
| 20260509121903 | 57 | 148 | 0.0 | 0.0 | 0.00 | 0.00 | 0.00 | 82 | 1030.2 |
| 20260509120903 | 58 | 148 | 0.0 | 0.0 | 0.00 | 0.00 | 0.00 | 82 | 1030.2 |
| 20260509120404 | 58 | 148 | 0.0 | 0.0 | 0.00 | 0.00 | 0.00 | 82 | 1030.2 |
| 20260509115903 | 58 | 148 | 0.0 | 0.0 | 0.00 | 0.00 | 0.00 | 82 | 1030.3 |
| 20260509115403 | 58 | 148 | 0.0 | 0.0 | 0.00 | 0.00 | 0.00 | 82 | 1030.2 |
| 20260509114904 | 58 | 148 | 0.0 | 0.0 | 0.00 | 0.00 | 0.00 | 81 | 1030.2 |
| 20260509114404 | 58 | 148 | 0.0 | 0.0 | 0.00 | 0.00 | 0.00 | 82 | 1030.3 |
| 20260509113903 | 58 | 148 | 0.0 | 0.0 | 0.00 | 0.00 | 0.00 | 81 | 1030.2 |
| 20260509113403 | 58 | 148 | 0.0 | 0.0 | 0.00 | 0.00 | 0.00 | 81 | 1030.2 |
| 20260509112904 | 58 | 148 | 0.0 | 0.0 | 0.00 | 0.00 | 0.00 | 81 | 1030.2 |
| 20260509111903 | 59 | 148 | 0.0 | 0.0 | 0.00 | 0.00 | 0.00 | 79 | 1030.3 |
| 20260509110403 | 59 | 148 | 0.0 | 0.0 | 0.00 | 0.00 | 0.00 | 75 | 1030.2 |
| 20260509105903 | 59 | 148 | 0.0 | 0.0 | 0.00 | 0.00 | 0.00 | 75 | 1030.3 |
| 20260509105404 | 59 | 148 | 0.0 | 0.0 | 0.00 | 0.00 | 0.00 | 75 | 1030.3 |
| 20260509104903 | 59 | 148 | 0.0 | 0.0 | 0.00 | 0.00 | 0.00 | 75 | 1030.3 |
| 20260509103904 | 59 | 148 | 0.0 | 0.0 | 0.00 | 0.00 | 0.00 | 75 | 1030.4 |
| 20260509102903 | 59 | 148 | 0.0 | 0.0 | 0.00 | 0.00 | 0.00 | 75 | 1030.4 |
| 20260509102404 | 60 | 148 | 0.0 | 0.0 | 0.00 | 0.00 | 0.00 | 75 | 1030.4 |
| 20260509101904 | 60 | 148 | 0.0 | 0.0 | 0.00 | 0.00 | 0.00 | 75 | 1030.5 |
| 20260509101404 | 60 | 148 | 0.0 | 0.0 | 0.00 | 0.00 | 0.00 | 75 | 1030.5 |
| 20260509100403 | 60 | 148 | 0.0 | 0.0 | 0.00 | 0.00 | 0.00 | 75 | 1030.6 |
| 20260509095904 | 60 | 148 | 0.0 | 0.0 | 0.00 | 0.00 | 0.00 | 75 | 1030.6 |
| 20260509094903 | 61 | 148 | 0.0 | 0.0 | 0.00 | 0.00 | 0.00 | 75 | 1030.6 |
| 20260509094404 | 61 | 148 | 0.0 | 0.0 | 0.00 | 0.00 | 0.00 | 75 | 1030.6 |
| 20260509093903 | 61 | 148 | 0.0 | 0.0 | 0.00 | 0.00 | 0.00 | 75 | 1030.7 |
| 20260509093404 | 61 | 148 | 0.0 | 0.0 | 0.00 | 0.00 | 0.00 | 75 | 1030.7 |
| 20260509092403 | 62 | 148 | 0.0 | 0.0 | 0.00 | 0.00 | 0.00 | 76 | 1030.8 |
| 20260509091904 | 62 | 148 | 0.0 | 0.0 | 0.00 | 0.00 | 0.00 | 77 | 1030.8 |
| 20260509091404 | 62 | 148 | 0.0 | 0.0 | 0.00 | 0.00 | 0.00 | 77 | 1030.9 |
| 20260509090403 | 62 | 148 | 0.0 | 0.0 | 0.00 | 0.00 | 0.00 | 76 | 1030.9 |
| 20260509085904 | 62 | 148 | 0.0 | 0.0 | 0.00 | 0.00 | 0.00 | 75 | 1030.9 |
| 20260509084404 | 63 | 148 | 0.0 | 0.0 | 0.00 | 0.00 | 0.00 | 74 | 1031.1 |
| 20260509083903 | 63 | 148 | 0.0 | 0.0 | 0.00 | 0.00 | 0.00 | 74 | 1031.2 |
| 20260509083403 | 63 | 148 | 0.0 | 0.0 | 0.00 | 0.00 | 0.00 | 74 | 1031.2 |
| 20260509082904 | 63 | 148 | 0.0 | 0.0 | 0.00 | 0.00 | 0.00 | 74 | 1031.2 |
| 20260509082404 | 63 | 148 | 0.0 | 0.0 | 0.00 | 0.00 | 0.00 | 74 | 1031.2 |
| 20260509081904 | 63 | 148 | 0.0 | 0.0 | 0.00 | 0.00 | 0.00 | 74 | 1031.2 |
| 20260509081403 | 63 | 148 | 0.0 | 0.0 | 0.00 | 0.00 | 0.00 | 74 | 1031.3 |
| 20260509080904 | 63 | 148 | 0.0 | 0.0 | 0.00 | 0.00 | 0.00 | 74 | 1031.4 |
| 20260509080404 | 63 | 148 | 0.0 | 0.0 | 0.00 | 0.00 | 0.00 | 74 | 1031.4 |
| 20260509075903 | 63 | 148 | 0.0 | 0.0 | 0.00 | 0.00 | 0.00 | 74 | 1031.4 |
| 20260509075403 | 64 | 148 | 0.0 | 0.0 | 0.00 | 0.00 | 0.00 | 74 | 1031.5 |
| 20260509074903 | 64 | 148 | 0.0 | 1.0 | 0.00 | 0.00 | 0.00 | 74 | 1031.6 |
| 20260509074404 | 64 | 148 | 0.0 | 0.0 | 0.00 | 0.00 | 0.00 | 73 | 1031.6 |
| 20260509073904 | 64 | 148 | 0.0 | 0.0 | 0.00 | 0.00 | 0.00 | 73 | 1031.6 |
| 20260509073403 | 64 | 148 | 0.0 | 0.0 | 0.00 | 0.00 | 0.00 | 73 | 1031.6 |
| 20260509072903 | 64 | 148 | 0.0 | 2.0 | 0.00 | 0.00 | 0.00 | 73 | 1031.5 |
| 20260509072404 | 64 | 148 | 1.0 | 2.0 | 0.00 | 0.00 | 0.00 | 73 | 1031.6 |
| 20260509071904 | 64 | 148 | 0.0 | 0.0 | 0.00 | 0.00 | 0.00 | 72 | 1031.7 |
| 20260509071403 | 64 | 148 | 0.0 | 0.0 | 0.00 | 0.00 | 0.00 | 71 | 1031.6 |
| 20260509070904 | 65 | 148 | 1.0 | 3.0 | 0.00 | 0.00 | 0.00 | 71 | 1031.6 |
| 20260509070405 | 65 | 148 | 0.0 | 2.0 | 0.00 | 0.00 | 0.00 | 71 | 1031.7 |
| 20260509065903 | 65 | 148 | 0.0 | 2.0 | 0.00 | 0.00 | 0.00 | 70 | 1031.7 |
| 20260509065404 | 65 | 148 | 1.0 | 3.0 | 0.00 | 0.00 | 0.00 | 70 | 1031.7 |
| 20260509064904 | 65 | 169 | 1.0 | 3.0 | 0.00 | 0.00 | 0.00 | 69 | 1031.7 |
| 20260509063904 | 66 | 169 | 1.0 | 2.0 | 0.00 | 0.00 | 0.00 | 68 | 1031.7 |
| 20260509063404 | 66 | 146 | 0.0 | 0.0 | 0.00 | 0.00 | 0.00 | 68 | 1031.7 |
| 20260509062904 | 66 | 146 | 0.0 | 0.0 | 0.00 | 0.00 | 0.00 | 67 | 1031.7 |
| 20260509061904 | 66 | 146 | 0.0 | 0.0 | 0.00 | 0.00 | 0.00 | 67 | 1031.7 |
| 20260509061403 | 66 | 146 | 0.0 | 0.0 | 0.00 | 0.00 | 0.00 | 66 | 1031.8 |
| 20260509060903 | 66 | 146 | 0.0 | 0.0 | 0.00 | 0.00 | 0.00 | 66 | 1031.8 |
| 20260509060403 | 66 | 146 | 0.0 | 2.0 | 0.00 | 0.00 | 0.00 | 66 | 1031.8 |
| 20260509055903 | 67 | 146 | 2.0 | 3.0 | 0.00 | 0.00 | 0.00 | 66 | 1031.7 |
| 20260509055403 | 67 | 137 | 1.0 | 3.0 | 0.00 | 0.00 | 0.00 | 65 | 1031.7 |
| 20260509054903 | 67 | 136 | 1.0 | 3.0 | 0.00 | 0.00 | 0.00 | 65 | 1031.7 |
| 20260509054403 | 67 | 146 | 1.0 | 3.0 | 0.00 | 0.00 | 0.00 | 64 | 1031.7 |
| 20260509053903 | 67 | 143 | 1.0 | 3.0 | 0.00 | 0.00 | 0.00 | 64 | 1031.7 |
| 20260509053404 | 67 | 130 | 2.0 | 3.0 | 0.00 | 0.00 | 0.00 | 63 | 1031.7 |
| 20260509052904 | 68 | 223 | 0.0 | 0.0 | 0.00 | 0.00 | 0.00 | 63 | 1031.8 |
| 20260509052403 | 68 | 223 | 0.0 | 0.0 | 0.00 | 0.00 | 0.00 | 62 | 1031.7 |
| 20260509051903 | 68 | 223 | 0.0 | 3.0 | 0.00 | 0.00 | 0.00 | 62 | 1031.7 |
| 20260509051403 | 68 | 223 | 2.0 | 3.0 | 0.00 | 0.00 | 0.00 | 61 | 1031.7 |
| 20260509050903 | 68 | 223 | 0.0 | 2.0 | 0.00 | 0.00 | 0.00 | 61 | 1031.7 |
| 20260509050404 | 68 | 223 | 0.0 | 0.0 | 0.00 | 0.00 | 0.00 | 60 | 1031.7 |
| 20260509045903 | 69 | 223 | 0.0 | 0.0 | 0.00 | 0.00 | 0.00 | 60 | 1031.8 |
| 20260509045403 | 69 | 223 | 0.0 | 0.0 | 0.00 | 0.00 | 0.00 | 60 | 1031.7 |
| 20260509044904 | 69 | 223 | 0.0 | 0.0 | 0.00 | 0.00 | 0.00 | 60 | 1031.6 |
| 20260509044403 | 69 | 223 | 0.0 | 0.0 | 0.00 | 0.00 | 0.00 | 60 | 1031.6 |
| 20260509043903 | 69 | 223 | 0.0 | 0.0 | 0.00 | 0.00 | 0.00 | 59 | 1031.6 |
| 20260509043403 | 69 | 223 | 0.0 | 0.0 | 0.00 | 0.00 | 0.00 | 59 | 1031.6 |
| 20260509042403 | 70 | 223 | 0.0 | 1.0 | 0.00 | 0.00 | 0.00 | 58 | 1031.5 |
| 20260509041403 | 70 | 223 | 2.0 | 3.0 | 0.00 | 0.00 | 0.00 | 58 | 1031.4 |
| 20260509040904 | 70 | 223 | 2.0 | 3.0 | 0.00 | 0.00 | 0.00 | 58 | 1031.4 |
| 20260509040403 | 70 | 224 | 2.0 | 3.0 | 0.00 | 0.00 | 0.00 | 57 | 1031.3 |
| 20260509035903 | 70 | 193 | 1.0 | 2.0 | 0.00 | 0.00 | 0.00 | 57 | 1031.3 |
| 20260509034903 | 71 | 193 | 0.0 | 1.0 | 0.00 | 0.00 | 0.00 | 57 | 1031.2 |
| 20260509034403 | 71 | 193 | 1.0 | 5.0 | 0.00 | 0.00 | 0.00 | 57 | 1031.2 |
| 20260509033904 | 71 | 207 | 1.0 | 3.0 | 0.00 | 0.00 | 0.00 | 56 | 1031.1 |
| 20260509033403 | 71 | 198 | 0.0 | 3.0 | 0.00 | 0.00 | 0.00 | 56 | 1031.0 |
| 20260509032903 | 72 | 197 | 0.0 | 3.0 | 0.00 | 0.00 | 0.00 | 55 | 1030.9 |
| 20260509031903 | 72 | 185 | 2.0 | 7.0 | 0.00 | 0.00 | 0.00 | 55 | 1030.8 |
| 20260509030904 | 73 | 213 | 7.0 | 12.0 | 0.00 | 0.00 | 0.00 | 53 | 1030.7 |
| 20260509025903 | 74 | 203 | 4.0 | 8.0 | 0.00 | 0.00 | 0.00 | 52 | 1030.6 |
| 20260509025403 | 74 | 223 | 6.0 | 10.0 | 0.00 | 0.00 | 0.00 | 51 | 1030.5 |
| 20260509024903 | 75 | 218 | 6.0 | 12.0 | 0.00 | 0.00 | 0.00 | 51 | 1030.4 |
| 20260509023903 | 76 | 217 | 7.0 | 12.0 | 0.00 | 0.00 | 0.00 | 50 | 1030.2 |
| 20260509022903 | 77 | 217 | 7.0 | 10.0 | 0.00 | 0.00 | 0.00 | 49 | 1030.0 |
| 20260509021903 | 78 | 214 | 5.0 | 10.0 | 0.00 | 0.00 | 0.00 | 49 | 1029.9 |
| 20260509021403 | 78 | 208 | 5.0 | 10.0 | 0.00 | 0.00 | 0.00 | 48 | 1029.8 |
| 20260509020903 | 78 | 220 | 7.0 | 12.0 | 0.00 | 0.00 | 0.00 | 48 | 1029.8 |
| 20260509015403 | 79 | 207 | 7.0 | 12.0 | 0.00 | 0.00 | 0.00 | 46 | 1029.6 |
| 20260509014903 | 80 | 218 | 5.0 | 12.0 | 0.00 | 0.00 | 0.00 | 46 | 1029.5 |
| 20260509013903 | 81 | 207 | 7.0 | 13.0 | 0.00 | 0.00 | 0.00 | 44 | 1029.4 |
| 20260509012903 | 81 | 224 | 7.0 | 12.0 | 0.00 | 0.00 | 0.00 | 43 | 1029.3 |
| 20260509012404 | 81 | 209 | 10.0 | 15.0 | 0.00 | 0.00 | 0.00 | 43 | 1029.3 |
| 20260509011903 | 82 | 217 | 9.0 | 13.0 | 0.00 | 0.00 | 0.00 | 42 | 1029.3 |
| 20260509011403 | 82 | 212 | 9.0 | 12.0 | 0.00 | 0.00 | 0.00 | 42 | 1029.3 |
| 20260509010903 | 82 | 216 | 7.0 | 14.0 | 0.00 | 0.00 | 0.00 | 42 | 1029.3 |
| 20260509010403 | 83 | 210 | 7.0 | 12.0 | 0.00 | 0.00 | 0.00 | 41 | 1029.3 |
| 20260509005904 | 83 | 205 | 9.0 | 14.0 | 0.00 | 0.00 | 0.00 | 41 | 1029.3 |
| 20260509003903 | 84 | 216 | 10.0 | 17.0 | 0.00 | 0.00 | 0.00 | 40 | 1029.2 |
| 20260509002903 | 85 | 211 | 12.0 | 16.0 | 0.00 | 0.00 | 0.00 | 40 | 1029.2 |
| 20260509002404 | 85 | 213 | 12.0 | 15.0 | 0.00 | 0.00 | 0.00 | 39 | 1029.2 |
| 20260509001903 | 86 | 219 | 12.0 | 17.0 | 0.00 | 0.00 | 0.00 | 39 | 1029.2 |
| 20260509001403 | 86 | 218 | 12.0 | 17.0 | 0.00 | 0.00 | 0.00 | 38 | 1029.2 |
| 20260509000904 | 87 | 217 | 10.0 | 17.0 | 0.00 | 0.00 | 0.00 | 37 | 1029.2 |
| 20260509000404 | 87 | 220 | 10.0 | 20.0 | 0.00 | 0.00 | 0.00 | 38 | 1029.2 |
| 20260508235903 | 88 | 210 | 10.0 | 15.0 | 0.00 | 0.00 | 0.00 | 37 | 1029.2 |
| 20260508235404 | 88 | 218 | 12.0 | 18.0 | 0.00 | 0.00 | 0.00 | 36 | 1029.2 |
| 20260508234903 | 89 | 225 | 9.0 | 18.0 | 0.00 | 0.00 | 0.00 | 35 | 1029.2 |
| 20260508234403 | 89 | 251 | 6.0 | 12.0 | 0.00 | 0.00 | 0.00 | 28 | 1029.3 |
| 20260508233903 | 89 | 237 | 10.0 | 15.0 | 0.00 | 0.00 | 0.00 | 33 | 1029.3 |
| 20260508233403 | 90 | 254 | 10.0 | 13.0 | 0.00 | 0.00 | 0.00 | 28 | 1029.2 |
| 20260508232903 | 90 | 265 | 7.0 | 12.0 | 0.00 | 0.00 | 0.00 | 28 | 1029.3 |
| 20260508232404 | 90 | 286 | 7.0 | 14.0 | 0.00 | 0.00 | 0.00 | 28 | 1029.2 |
| 20260508231903 | 90 | 287 | 6.0 | 12.0 | 0.00 | 0.00 | 0.00 | 28 | 1029.2 |
| 20260508231404 | 90 | 296 | 7.0 | 15.0 | 0.00 | 0.00 | 0.00 | 28 | 1029.3 |
| 20260508230904 | 90 | 305 | 6.0 | 12.0 | 0.00 | 0.00 | 0.00 | 29 | 1029.3 |
| 20260508230403 | 90 | 318 | 7.0 | 13.0 | 0.00 | 0.00 | 0.00 | 29 | 1029.5 |
| 20260508225903 | 90 | 329 | 8.0 | 14.0 | 0.00 | 0.00 | 0.00 | 29 | 1029.5 |
| 20260508225403 | 90 | 320 | 6.0 | 12.0 | 0.00 | 0.00 | 0.00 | 28 | 1029.5 |
| 20260508224905 | 90 | 308 | 6.0 | 14.0 | 0.00 | 0.00 | 0.00 | 27 | 1029.5 |
| 20260508224404 | 90 | 312 | 5.0 | 10.0 | 0.00 | 0.00 | 0.00 | 27 | 1029.5 |
| 20260508223404 | 90 | 324 | 5.0 | 12.0 | 0.00 | 0.00 | 0.00 | 29 | 1029.6 |
| 20260508222903 | 89 | 295 | 6.0 | 12.0 | 0.00 | 0.00 | 0.00 | 28 | 1029.7 |
| 20260508221904 | 89 | 306 | 7.0 | 12.0 | 0.00 | 0.00 | 0.00 | 30 | 1029.8 |
| 20260508221404 | 89 | 308 | 6.0 | 12.0 | 0.00 | 0.00 | 0.00 | 28 | 1029.8 |
| 20260508220903 | 89 | 309 | 6.0 | 15.0 | 0.00 | 0.00 | 0.00 | 28 | 1029.9 |
| 20260508215904 | 89 | 330 | 6.0 | 13.0 | 0.00 | 0.00 | 0.00 | 29 | 1030.0 |
| 20260508215403 | 89 | 316 | 5.0 | 12.0 | 0.00 | 0.00 | 0.00 | 29 | 1030.1 |
| 20260508214903 | 89 | 22 | 3.0 | 8.0 | 0.00 | 0.00 | 0.00 | 29 | 1030.2 |
| 20260508214404 | 89 | 289 | 3.0 | 10.0 | 0.00 | 0.00 | 0.00 | 29 | 1030.2 |
| 20260508213903 | 89 | 305 | 3.0 | 10.0 | 0.00 | 0.00 | 0.00 | 29 | 1030.3 |
| 20260508213404 | 88 | 266 | 5.0 | 10.0 | 0.00 | 0.00 | 0.00 | 29 | 1030.4 |
| 20260508212903 | 88 | 328 | 6.0 | 12.0 | 0.00 | 0.00 | 0.00 | 29 | 1030.5 |
| 20260508212403 | 88 | 36 | 2.0 | 7.0 | 0.00 | 0.00 | 0.00 | 28 | 1030.5 |
| 20260508211903 | 88 | 247 | 2.0 | 7.0 | 0.00 | 0.00 | 0.00 | 29 | 1030.6 |
| 20260508210904 | 88 | 329 | 6.0 | 9.0 | 0.00 | 0.00 | 0.00 | 30 | 1030.7 |
| 20260508210403 | 87 | 331 | 3.0 | 9.0 | 0.00 | 0.00 | 0.00 | 31 | 1030.7 |
| 20260508205903 | 87 | 208 | 4.0 | 7.0 | 0.00 | 0.00 | 0.00 | 32 | 1030.9 |
| 20260508205403 | 86 | 25 | 1.0 | 10.0 | 0.00 | 0.00 | 0.00 | 33 | 1030.9 |
| 20260508204903 | 86 | 48 | 2.0 | 8.0 | 0.00 | 0.00 | 0.00 | 33 | 1031.0 |
| 20260508204404 | 86 | 347 | 3.0 | 8.0 | 0.00 | 0.00 | 0.00 | 34 | 1031.0 |
| 20260508203904 | 86 | 332 | 1.0 | 8.0 | 0.00 | 0.00 | 0.00 | 34 | 1031.1 |
| 20260508203404 | 85 | 231 | 3.0 | 8.0 | 0.00 | 0.00 | 0.00 | 35 | 1031.2 |
| 20260508202903 | 85 | 74 | 3.0 | 6.0 | 0.00 | 0.00 | 0.00 | 37 | 1031.2 |
| 20260508202403 | 84 | 251 | 3.0 | 10.0 | 0.00 | 0.00 | 0.00 | 36 | 1031.3 |
| 20260508201904 | 84 | 191 | 2.0 | 7.0 | 0.00 | 0.00 | 0.00 | 37 | 1031.4 |
| 20260508201404 | 84 | 215 | 3.0 | 9.0 | 0.00 | 0.00 | 0.00 | 38 | 1031.3 |
| 20260508200904 | 84 | 236 | 4.0 | 8.0 | 0.00 | 0.00 | 0.00 | 39 | 1031.4 |
| 20260508200403 | 84 | 291 | 3.0 | 7.0 | 0.00 | 0.00 | 0.00 | 40 | 1031.5 |
| 20260508195903 | 83 | 215 | 5.0 | 12.0 | 0.00 | 0.00 | 0.00 | 41 | 1031.5 |
| 20260508195404 | 82 | 210 | 4.0 | 8.0 | 0.00 | 0.00 | 0.00 | 41 | 1031.6 |
| 20260508194903 | 82 | 327 | 3.0 | 7.0 | 0.00 | 0.00 | 0.00 | 42 | 1031.7 |
| 20260508193904 | 82 | 279 | 5.0 | 12.0 | 0.00 | 0.00 | 0.00 | 42 | 1031.9 |
| 20260508192904 | 81 | 72 | 1.0 | 3.0 | 0.00 | 0.00 | 0.00 | 43 | 1032.1 |
| 20260508192404 | 81 | 89 | 2.0 | 3.0 | 0.00 | 0.00 | 0.00 | 42 | 1032.1 |
| 20260508191904 | 81 | 220 | 1.0 | 2.0 | 0.00 | 0.00 | 0.00 | 42 | 1032.2 |
| 20260508191403 | 81 | 355 | 1.0 | 3.0 | 0.00 | 0.00 | 0.00 | 42 | 1032.3 |
| 20260508190903 | 81 | 308 | 3.0 | 6.0 | 0.00 | 0.00 | 0.00 | 42 | 1032.3 |
| 20260508190405 | 80 | 222 | 3.0 | 6.0 | 0.00 | 0.00 | 0.00 | 44 | 1032.3 |
| 20260508185904 | 80 | 296 | 2.0 | 6.0 | 0.00 | 0.00 | 0.00 | 43 | 1032.4 |
| 20260508185403 | 79 | 229 | 2.0 | 6.0 | 0.00 | 0.00 | 0.00 | 44 | 1032.4 |
| 20260508184904 | 79 | 232 | 3.0 | 6.0 | 0.00 | 0.00 | 0.00 | 45 | 1032.4 |
| 20260508184404 | 78 | 142 | 1.0 | 3.0 | 0.00 | 0.00 | 0.00 | 48 | 1032.5 |
| 20260508183903 | 77 | 5 | 1.0 | 3.0 | 0.00 | 0.00 | 0.00 | 49 | 1032.6 |
| 20260508183404 | 76 | 355 | 1.0 | 3.0 | 0.00 | 0.00 | 0.00 | 50 | 1032.7 |
| 20260508182904 | 75 | 269 | 3.0 | 6.0 | 0.00 | 0.00 | 0.00 | 50 | 1032.7 |
| 20260508181904 | 74 | 132 | 2.0 | 3.0 | 0.00 | 0.00 | 0.00 | 55 | 1032.7 |
| 20260508181403 | 73 | 279 | 2.0 | 3.0 | 0.00 | 0.00 | 0.00 | 57 | 1032.8 |
| 20260508180904 | 72 | 164 | 1.0 | 3.0 | 0.00 | 0.00 | 0.00 | 60 | 1032.8 |
| 20260508180403 | 72 | 277 | 1.0 | 3.0 | 0.00 | 0.00 | 0.00 | 60 | 1032.8 |
| 20260508175903 | 71 | 23 | 1.0 | 3.0 | 0.00 | 0.00 | 0.00 | 61 | 1032.8 |
| 20260508174903 | 70 | 60 | 1.0 | 3.0 | 0.00 | 0.00 | 0.00 | 64 | 1032.9 |
| 20260508174403 | 69 | 139 | 1.0 | 3.0 | 0.00 | 0.00 | 0.00 | 68 | 1033.0 |
| 20260508173902 | 68 | 212 | 3.0 | 3.0 | 0.00 | 0.00 | 0.00 | 70 | 1033.0 |
| 20260508173403 | 67 | 279 | 1.0 | 3.0 | 0.00 | 0.00 | 0.00 | 73 | 1033.0 |
| 20260508172904 | 67 | 183 | 2.0 | 3.0 | 0.00 | 0.00 | 0.00 | 75 | 1033.0 |
| 20260508172403 | 66 | 344 | 1.0 | 3.0 | 0.00 | 0.00 | 0.00 | 78 | 1032.9 |
| 20260508171903 | 65 | 243 | 0.0 | 3.0 | 0.00 | 0.00 | 0.00 | 80 | 1032.9 |